Regional Weather Roundup
Issued by NWS

Home | Current Version | Previous Version | Text Only | Print | Product List | Glossary Off
Versions: 1 2 3 4 5 6 7 8 9 10 11 12 13 14 15 16 17 18 19 20 21 22 23 24 25 26 27 28

000
ASUS45 KSLC 190510
RWRUT

UTAH REGIONAL WEATHER ROUNDUP
NATIONAL WEATHER SERVICE SALT LAKE CITY UT
1100 PM MDT WED APR 18 2018

UTZ001>011-023>025-190600-

NORTHERN UTAH

CITY           SKY/WX    TMP DP  RH WIND       PRES   REMARKS
BRIGHAM CITY   MOCLDY    48  20  32 CALM      29.99F
HILL AFB       PTCLDY    49  19  31 E9        29.98F
LOGAN          MOCLDY    49  28  44 CALM      30.01F
OGDEN          PTCLDY    44  28  53 CALM      29.97F
SALT LAKE CITY MOCLDY    45  35  68 CALM      29.98S
TOOELE VALLEY  PTCLDY    32  32 100 S8        29.99F WCI  25
WENDOVER       MOCLDY    50  18  28 VRB5      29.96F
HEBER CITY       N/A     39   9  28 CALM      30.04S
WEST JORDAN    CLEAR     41  28  60 SW5       30.00S

$$

UTZ011>015-024>027-190600-

CENTRAL/NORTHEAST UTAH

CITY           SKY/WX    TMP DP  RH WIND       PRES   REMARKS
PROVO AIRPORT  CLEAR     53  10  18 SE12      29.99S
MOAB/CANYONLAN PTCLDY    42   0  17 CALM      30.04F
DELTA          PTCLDY    41  32  70 E5        29.95F
PRICE          MOCLDY    44  -4  13 E6        30.08S
ROOSEVELT      MOCLDY    36  16  44 SW5       30.10F WCI  32
VERNAL         MOCLDY    43   7  22 NW7       30.09S

$$

UTZ013>016-019>022-027-190600-

SOUTHERN UTAH

CITY           SKY/WX    TMP DP  RH WIND       PRES   REMARKS
BRYCE CANYON   CLEAR     34   3  27 SE8       30.09F WCI  27
CEDAR CITY     MOCLDY    49   8  19 CALM      29.97R
MILFORD        MOCLDY    44  31  60 NW10      29.94S
ST GEORGE      PTCLDY    59  11  15 SE9       29.92R
HANKSVILLE     CLEAR     50   0  12 CALM      30.07S
BLANDING         N/A     38  -8  13 N9        30.17F WCI  32

$$

REGIONAL REPORTS     COLORADO/ARIZONA

CITY           SKY/WX    TMP DP  RH WIND       PRES   REMARKS
CRAIG, CO      MOCLDY    34  22  61 CALM      30.12F
GRAND JUNCTION PTCLDY    41   8  25 E7        30.08S
RIFLE, CO      PTCLDY    40  21  46 E6        30.11S
MONTROSE, CO   CLEAR     39   9  29 SE8       30.14S WCI  33
CORTEZ, CO     CLEAR     35  -6  17 NE5       30.13S WCI  31
COLORADO CITY    N/A     50  12  22 NE5       30.01S
PAGE, AZ       NOT AVBL
GRAND CANYON   CLEAR     31  -2  24 NE3       30.10R
KINGMAN, AZ    CLEAR     55  10  16 S10       29.96S
FLAGSTAFF, AZ  CLEAR     41   5  22 SW6       30.12S

$$

REGIONAL REPORTS    NEVADA/IDAHO/WYOMING

CITY           SKY/WX    TMP DP  RH WIND       PRES   REMARKS
LAS VEGAS, NV  MOCLDY    69   7   9 S7        29.85S
ELY, NY        MOCLDY    41   7  24 S12       29.94F
ELKO, NV       CLOUDY    50  18  28 E7        29.87F
POCATELLO, ID  CLOUDY    44  24  45 E8        30.03F
BURLEY, ID     CLOUDY    45  18  34 VRB6      29.96F
FORT BRIDGER,    N/A     35  -1  21 W6        30.09F WCI  30
EVANSTON, WY   PTCLDY    40   8  26 SE5       30.06F
ROCK SPRINGS,  MOCLDY    38   8  29 SE12      30.10F WCI  30
KEMMERER, WY   MOCLDY    36   1  23 E6        30.08F WCI  31

$$




USA.gov is the U.S. government's official web portal to all federal, state and local government web resources and services.